Theta_e
324 323 325 326 328 333 332 334 334 336 338 339 339 340 341 340 341 341 345 345 343 344 344 343 341 341 340 338 337 340 339 341 340 342 342 341 342 342 342 342 342 342 341 342 341 341 341 342 341 341 341 341 341 340 340 339 339 338 337 338 337 337 339 342 342 342 339 336 338 339 338 341 341 342 341 341 341 342 342 341 340 341 342 342 342
325 324 324 326 326 329 331 331 332 333 334 337 337 339 340 339 339 340 341 343 343 342 342 341 341 339 338 337 337 338 338 337 337 339 338 339 339 340 340 341 341 340 341 342 341 340 340 339 340 340 340 341 341 340 339 338 339 338 337 336 340 336 336 338 341 340 333 332 328 330 333 336 340 341 340 341 341 339 339 340 340 339 339 340 341
323 324 324 325 326 327 328 330 330 332 334 335 337 337 338 338 338 339 340 340 340 342 340 340 342 343 341 340 338 336 338 338 337 336 336 335 335 336 337 338 338 338 339 339 339 338 338 338 339 339 340 339 340 340 340 339 338 337 337 335 334 337 336 338 341 341 331 333 333 330 325 324 330 335 341 339 338 338 339 340 338 337 336 338 339
322 323 323 324 325 326 326 326 328 329 329 331 334 335 335 335 338 338 338 340 340 341 340 341 342 342 342 340 338 337 335 336 336 335 334 334 333 334 334 335 336 336 337 337 336 336 336 336 336 336 337 338 335 333 332 334 336 337 337 336 336 330 332 334 339 339 336 331 324 325 325 325 319 323 327 332 335 337 339 337 338 337 337 337 338
321 323 322 323 324 324 324 325 328 327 328 329 331 332 332 333 335 338 338 338 339 339 340 341 340 339 338 337 337 337 338 336 333 331 331 332 332 332 331 333 332 332 333 332 332 331 332 333 332 331 330 330 331 330 328 329 329 330 331 333 334 331 329 332 334 337 336 336 330 325 323 321 320 323 326 327 333 333 334 336 337 337 336 336 335
323 320 320 321 321 322 323 324 325 325 326 327 329 330 331 331 332 333 334 336 337 338 339 339 339 336 335 333 332 332 331 332 330 329 329 328 328 330 330 328 327 327 327 327 327 327 327 329 330 329 329 328 328 327 327 327 327 328 328 330 330 332 331 329 330 334 335 335 335 333 330 322 322 325 325 319 330 331 331 333 335 336 336 335 335
321 321 320 319 320 321 321 322 323 322 323 325 326 327 329 330 331 332 333 334 335 335 335 335 335 336 335 333 333 332 329 328 329 329 328 327 328 327 327 326 323 323 323 323 324 324 324 325 326 327 326 326 327 327 326 327 327 327 328 328 328 329 331 327 328 330 332 334 334 335 334 333 333 327 321 322 319 326 329 330 331 333 335 334 333
319 319 319 321 322 320 318 320 320 321 322 323 323 325 327 330 331 331 331 331 332 332 331 333 332 332 331 331 330 330 329 327 326 326 327 326 326 325 326 323 322 321 321 320 321 321 322 321 323 324 323 323 323 323 323 325 326 327 328 329 329 329 329 327 327 329 327 327 332 331 332 332 333 332 330 324 320 319 322 328 330 331 332 334 334
319 319 317 319 320 319 319 319 320 320 321 320 321 323 325 326 327 327 328 329 329 330 330 330 330 330 329 329 327 327 327 326 325 325 324 325 324 325 325 323 321 321 320 320 320 320 320 320 321 321 322 322 322 323 323 324 325 325 324 324 324 324 324 327 327 326 327 326 327 328 329 329 329 330 330 328 322 320 319 321 323 329 331 332 333
319 319 318 318 318 318 319 319 318 319 320 321 321 322 323 325 326 326 326 326 327 328 328 327 327 327 327 326 326 324 324 323 323 321 322 324 323 323 323 320 320 321 320 318 319 318 318 319 318 318 318 318 318 319 320 321 321 322 323 323 323 323 323 323 322 322 323 324 326 326 325 326 327 326 326 325 325 324 319 320 323 323 322 326 331
318 318 318 318 318 318 317 317 317 318 319 320 321 322 324 324 325 324 324 324 325 324 325 325 325 325 325 324 322 321 321 321 320 320 321 321 321 320 320 319 319 318 318 317 317 317 318 317 317 317 318 318 317 317 318 317 318 319 321 322 321 320 319 319 320 322 322 322 321 322 323 324 324 324 323 324 324 322 321 321 323 323 322 323 328
318 318 317 318 317 317 317 315 316 316 318 319 321 322 322 322 322 321 322 322 322 323 323 323 322 322 322 322 320 320 320 320 319 318 319 319 320 319 319 319 318 317 316 315 316 316 317 317 317 317 316 316 316 316 317 316 317 318 318 317 317 318 317 315 316 317 317 318 319 320 320 322 323 323 325 326 324 323 322 321 321 323 324 325 327
317 317 317 317 317 317 316 316 316 317 317 319 320 322 322 321 321 320 319 320 320 321 320 320 321 320 320 320 319 319 318 318 317 317 318 318 318 318 317 316 316 315 314 314 315 316 316 315 315 314 314 315 315 315 315 315 315 315 315 314 314 314 313 313 313 315 315 315 315 318 320 320 319 321 323 323 323 324 323 320 322 324 322 323 326
318 317 317 317 317 316 317 318 319 319 319 319 320 320 320 320 320 319 317 319 319 319 319 318 318 319 319 319 318 318 317 317 316 316 317 317 317 316 315 315 314 314 314 314 314 314 314 314 314 314 314 314 314 314 314 314 314 313 313 311 311 312 311 312 312 313 314 315 316 316 317 317 319 320 320 320 320 319 318 319 319 321 323 322 325
319 318 316 316 316 317 318 320 321 320 320 320 320 320 320 319 319 318 317 318 318 318 318 317 317 318 317 317 316 317 315 315 315 316 316 315 315 315 315 314 313 314 313 314 313 313 313 313 313 313 313 313 313 313 313 314 314 313 312 311 310 310 311 311 311 312 312 312 314 314 314 315 316 317 318 318 319 319 318 318 318 316 317 320 321
319 318 317 317 317 319 320 321 321 320 320 320 319 319 319 318 319 318 317 316 316 317 317 316 316 316 315 315 315 315 315 315 314 314 314 315 315 314 313 313 313 313 313 313 312 312 312 311 311 311 311 312 312 312 312 312 313 312 311 311 310 311 311 311 311 311 311 312 312 313 313 313 315 316 315 315 315 317 317 317 317 315 310 310 316
318 317 316 317 318 318 318 318 318 317 316 316 316 317 317 317 317 317 317 316 316 316 316 315 315 314 314 315 314 314 314 313 312 313 313 313 314 313 312 312 313 313 312 312 311 311 311 310 310 310 310 310 311 311 310 311 312 312 312 311 311 312 312 311 311 310 311 311 311 311 311 312 313 314 314 313 314 315 315 315 314 312 311 309 308
317 317 317 317 317 317 317 317 318 317 317 316 316 317 317 318 317 317 316 315 315 315 315 314 313 313 313 313 314 313 313 313 312 312 313 313 312 312 313 312 311 311 311 311 311 310 310 310 309 309 309 309 309 310 310 310 311 310 311 310 310 311 311 311 311 311 311 311 311 311 312 311 312 312 312 313 313 312 312 312 312 313 313 309 309
315 315 315 315 316 316 317 317 318 317 317 317 317 317 317 317 316 316 315 315 314 313 313 313 313 312 312 312 312 312 312 312 311 311 312 311 311 311 311 310 311 311 310 310 309 309 309 308 309 308 308 307 308 308 309 309 309 308 308 308 309 310 309 309 311 311 310 310 310 310 311 311 311 311 312 312 313 312 311 310 310 312 312 311 309
314 313 313 314 314 314 315 315 315 315 316 316 316 316 316 316 316 316 316 314 314 313 312 312 312 312 312 311 311 310 310 310 311 311 310 310 309 310 310 310 310 310 309 309 309 308 308 307 307 307 307 307 306 307 308 307 308 307 307 307 307 308 307 307 309 309 309 309 309 308 309 309 309 309 309 310 310 311 310 309 309 309 309 310 310
312 313 313 312 312 313 314 314 314 315 315 315 315 315 315 316 316 315 314 313 312 312 311 311 311 310 310 310 310 310 310 310 310 310 310 310 310 310 309 309 309 309 309 308 308 308 307 307 306 306 306 306 306 306 306 307 306 306 306 306 306 306 305 306 307 307 308 308 308 307 307 307 308 308 307 308 308 308 308 308 309 308 307 308 307
313 314 313 313 313 313 313 313 314 314 314 314 315 315 315 315 314 313 312 311 311 310 310 310 310 310 309 309 309 310 309 310 310 309 309 308 308 308 309 309 308 308 308 307 307 308 307 307 306 305 305 305 305 305 306 306 305 305 305 306 305 305 305 305 306 305 306 307 307 306 306 306 307 307 307 306 307 306 306 305 306 306 306 306 307
314 314 313 313 313 313 313 313 313 313 313 314 314 314 314 314 313 313 311 310 311 311 310 310 309 309 309 309 309 308 308 308 308 308 308 307 307 308 308 308 307 307 308 307 307 307 307 306 306 305 305 304 304 304 305 305 304 304 304 304 304 304 304 304 304 304 305 306 305 305 304 304 306 305 305 306 306 305 305 304 304 304 304 305 306
314 314 312 312 312 312 312 312 312 312 313 313 313 313 313 313 311 311 310 310 309 309 309 309 309 308 309 308 308 308 308 308 307 307 308 308 308 307 307 307 307 307 306 307 307 306 306 306 305 305 304 303 304 304 304 304 304 304 304 303 303 304 304 304 303 304 304 304 304 303 303 303 304 303 303 303 304 303 302 302 303 303 303 303 305
309 309 309 309 309 309 310 310 310 311 311 313 312 312 311 311 311 309 309 309 308 308 308 308 308 307 307 307 307 307 307 306 306 306 306 306 306 306 306 305 306 306 306 306 307 306 305 305 305 304 304 303 303 303 302 303 303 304 304 304 303 303 304 304 304 304 303 303 303 303 303 302 302 301 301 301 301 301 300 300 300 301 301 301 302
310 310 309 309 309 309 309 310 310 310 311 312 312 312 311 310 310 310 308 308 307 307 307 307 307 306 306 306 306 306 305 305 305 305 305 305 305 305 305 305 305 305 306 305 306 306 305 305 304 304 304 303 302 302 302 302 302 303 304 304 304 304 303 304 303 303 303 303 303 302 302 302 301 300 300 300 299 298 298 298 298 299 299 300 300
311 311 311 310 310 309 309 310 310 311 312 312 311 310 309 309 309 309 308 308 308 307 306 306 307 306 305 305 305 304 304 304 304 305 305 304 304 305 304 304 305 305 305 305 305 305 305 305 304 304 303 303 302 301 301 301 301 301 302 303 304 303 303 304 304 303 303 303 302 302 302 302 301 300 299 298 297 297 297 297 298 298 298 299 298
309 309 308 308 308 308 308 309 309 310 311 310 310 309 309 308 308 308 308 308 308 306 305 305 305 305 305 304 303 304 304 304 304 304 304 305 304 304 304 305 305 304 304 304 304 304 305 305 305 304 303 302 301 300 300 300 300 300 301 303 304 303 304 304 304 303 303 302 302 302 302 301 301 300 299 298 298 296 296 296 297 297 297 297 298
306 306 307 307 306 307 308 309 309 310 309 309 308 308 308 308 308 308 308 307 307 306 305 305 304 304 303 303 303 304 304 304 304 304 304 304 304 304 304 304 304 304 305 304 304 305 304 304 304 303 302 301 301 300 300 298 299 298 301 303 303 303 303 302 302 302 302 302 302 302 301 301 300 300 298 298 297 296 296 295 296 297 297 296 296
305 306 307 307 307 308 309 309 309 309 308 308 307 307 307 307 307 308 307 307 307 305 304 304 303 302 302 302 302 303 303 303 303 303 303 304 304 304 304 304 303 303 304 304 304 305 304 304 303 302 302 301 300 300 296 293 294 297 300 302 304 303 303 302 302 301 301 301 301 301 301 301 299 298 298 296 295 295 296 296 296 297 296 295 295
306 307 307 307 308 308 308 308 309 308 308 307 307 307 307 307 307 307 307 307 306 305 304 303 302 302 302 302 302 302 302 302 302 303 303 302 303 304 304 303 303 303 304 304 304 304 304 303 303 302 301 301 300 298 292 292 292 292 297 302 302 302 302 302 301 300 299 300 300 300 300 300 299 298 298 296 295 294 294 294 294 295 296 296 296
305 306 307 307 307 308 308 308 309 309 308 308 307 307 306 306 306 306 306 306 306 304 303 302 302 302 301 301 301 301 301 301 302 301 302 302 303 302 302 303 303 303 304 304 304 303 303 304 303 303 302 301 301 294 291 292 292 291 293 299 303 302 302 301 300 300 299 299 298 298 298 299 299 298 298 298 296 295 294 293 293 294 294 294 294
306 306 306 307 308 308 309 309 309 308 308 308 308 307 306 305 305 305 306 305 304 303 302 302 301 301 301 302 301 301 301 301 301 301 302 302 302 302 302 302 302 303 304 303 303 303 303 303 303 302 301 300 300 293 291 291 292 291 291 295 302 301 301 300 300 300 299 298 298 297 297 297 297 299 299 297 296 296 295 294 295 296 296 296 294
306 307 307 308 309 309 310 310 309 309 309 309 309 307 306 306 305 305 305 303 302 301 302 301 301 301 301 301 301 301 300 300 301 301 301 301 301 301 302 303 303 303 303 302 303 302 302 303 302 302 302 301 299 294 291 291 291 290 291 294 302 301 301 300 299 299 299 298 298 297 296 296 297 298 298 296 295 295 295 296 297 298 298 298 296
307 308 308 308 309 309 310 309 309 309 309 308 307 307 305 304 304 303 302 301 301 301 301 301 300 301 301 301 301 300 300 300 300 301 301 301 301 302 301 302 302 302 301 301 301 302 302 302 302 302 302 300 298 291 291 290 291 291 290 295 302 301 300 300 300 300 300 299 298 298 297 297 297 297 297 294 294 294 294 295 296 296 296 297 298
308 308 309 309 309 309 309 309 309 309 308 307 306 305 303 302 303 301 300 300 300 300 300 300 300 301 301 301 301 301 300 300 300 300 300 300 301 301 301 301 301 301 302 301 301 302 301 301 301 302 301 300 298 291 291 291 290 291 291 301 300 300 299 299 300 300 300 299 298 298 297 297 297 297 295 291 291 293 294 294 294 295 296 297 298
309 310 310 311 311 310 310 310 309 308 307 306 305 304 303 301 300 300 300 300 300 300 300 300 300 300 301 301 301 301 300 300 300 300 300 300 300 301 301 302 301 301 300 300 301 301 301 301 300 301 301 301 300 294 291 291 291 290 294 300 299 299 299 299 299 299 299 299 299 298 297 297 297 297 293 289 290 291 295 294 293 293 294 295 296
310 311 310 311 311 310 310 309 308 307 307 306 305 303 301 300 299 299 299 299 299 299 300 300 300 301 301 301 301 301 300 300 300 299 300 300 301 301 301 302 300 300 299 300 301 301 301 301 300 299 300 300 300 296 291 291 291 290 293 299 298 298 298 298 299 299 299 299 299 299 298 296 296 295 291 289 289 293 294 293 293 292 291 292 294
310 310 308 309 309 309 308 308 307 306 305 305 304 302 300 299 299 299 299 299 299 300 300 300 300 301 301 301 301 301 301 300 300 300 301 300 300 301 301 302 301 301 300 300 300 300 300 301 301 301 298 299 300 298 292 291 290 291 294 299 298 297 297 298 298 298 299 298 298 298 297 295 295 293 289 290 289 292 294 294 292 291 290 290 291
309 309 310 309 309 308 307 307 305 305 305 304 302 301 300 299 299 300 299 299 300 300 301 301 301 301 301 302 302 302 301 301 300 301 301 300 301 301 302 301 301 300 300 300 300 300 300 300 301 301 300 300 299 300 297 291 291 291 291 296 298 297 296 297 297 296 296 297 297 298 297 292 290 290 289 289 289 290 293 294 293 291 289 288 291
307 307 306 308 308 307 306 305 305 304 304 303 301 300 299 299 300 300 300 300 301 302 301 301 301 301 301 301 302 302 302 302 301 301 301 301 301 301 302 301 300 301 301 301 301 301 300 300 300 300 300 300 299 298 298 291 291 291 290 292 298 297 296 297 297 296 296 296 296 296 298 294 291 290 290 289 290 290 291 295 293 291 291 291 291
307 306 307 307 307 307 306 305 305 304 303 302 301 300 299 300 300 300 301 302 302 302 302 302 301 301 301 301 302 302 303 303 302 302 301 301 301 302 302 301 301 301 301 301 301 300 300 300 300 300 300 300 300 297 298 294 291 291 291 290 296 298 296 297 296 296 296 296 296 296 297 294 291 290 289 290 290 290 290 295 293 289 289 289 292
306 306 307 306 306 305 304 304 304 304 303 302 301 300 300 300 300 301 302 302 302 302 302 302 301 301 301 301 302 302 302 303 303 302 302 301 301 301 301 302 302 301 300 300 300 300 300 299 299 299 300 300 301 300 294 297 293 291 291 291 290 294 291 297 297 296 296 296 297 297 297 294 290 290 290 290 290 290 292 293 289 289 290 290 292
305 306 306 306 305 304 304 304 303 303 302 301 301 300 300 300 300 302 302 302 302 302 302 301 301 301 302 301 302 302 303 303 303 302 302 302 301 301 300 301 301 300 299 298 298 299 299 298 297 298 299 299 300 300 295 292 295 292 291 290 290 290 290 297 298 297 297 297 296 297 296 291 290 290 290 290 290 291 294 290 289 289 290 291 293
304 305 306 305 304 304 303 302 302 302 301 301 301 300 300 300 302 302 302 302 302 302 301 301 301 301 302 302 302 302 302 302 302 302 301 300 301 302 300 301 301 300 299 298 297 298 298 298 297 298 298 298 299 299 299 296 292 292 291 291 290 290 290 290 298 298 297 298 293 291 290 290 290 290 291 291 292 292 290 290 290 290 293 294 293
304 305 305 305 304 304 302 301 301 301 301 302 302 301 300 301 302 302 302 302 302 301 301 301 301 301 301 301 301 301 302 302 302 302 302 301 301 300 300 300 300 299 299 298 297 297 297 298 297 298 298 298 299 298 297 298 296 295 294 292 291 291 292 292 293 296 291 291 290 291 291 291 292 293 296 296 295 296 291 291 291 293 296 294 293
304 305 304 304 304 302 301 300 299 301 302 301 302 301 302 303 302 302 302 302 302 301 301 301 301 301 302 301 301 301 301 301 302 302 301 301 300 300 301 300 301 299 299 298 298 297 297 297 297 297 298 298 298 297 296 296 297 296 296 297 297 297 293 293 296 297 295 297 296 295 294 292 293 291 291 292 293 293 295 295 296 296 295 295 294
305 305 305 304 303 301 300 299 299 301 302 301 301 301 302 303 302 302 302 301 301 301 301 301 301 302 301 302 301 294 298 301 301 301 300 300 300 301 300 299 299 300 299 298 299 297 296 298 297 297 297 297 296 296 295 294 295 295 295 295 296 295 296 297 296 296 297 298 298 294 294 297 297 297 296 296 296 296 295 294 295 295 294 292 293
304 304 303 303 302 300 300 299 300 300 300 300 300 300 302 302 301 301 302 301 301 300 302 302 302 302 301 302 302 300 301 301 301 301 302 302 301 301 301 301 301 302 300 300 300 299 298 299 299 298 296 296 296 295 295 291 293 289 291 294 295 294 295 295 294 290 295 298 298 296 296 295 294 293 293 294 294 294 295 295 295 295 294 293 293
304 304 304 303 303 301 300 300 300 300 300 300 300 300 301 300 301 302 303 302 302 302 302 302 302 302 302 301 302 301 301 301 301 300 300 300 292 292 298 302 302 290 282 286 289 298 300 299 299 299 299 296 295 295 290 287 289 288 288 288 288 288 288 292 290 288 292 294 294 294 294 293 293 293 292 291 292 293 293 293 293 291 293 293 292
302 303 303 303 302 302 301 300 302 302 301 301 300 300 300 301 301 302 302 302 302 301 301 301 302 302 300 301 301 301 302 301 301 301 301 300 299 298 290 287 290 293 292 286 284 285 283 285 294 298 297 291 291 290 288 289 288 288 288 288 288 288 288 289 289 291 293 293 292 292 292 292 292 293 291 291 291 291 291 291 292 293 294 293 292
Wind_Speed
7 5 8 8 7 5 7 7 10 9 10 10 10 9 8 8 9 8 6 5 5 5 4 3 4 5 5 5 6 6 4 4 5 5 5 6 6 6 6 5 6 6 5 5 5 4 4 5 5 4 4 4 3 3 4 4 4 4 5 5 7 6 6 5 5 6 7 8 7 8 8 8 9 9 9 7 7 6 6 6 6 6 7 7 7
10 7 6 6 7 7 6 4 7 8 10 10 9 9 9 9 8 8 7 7 6 6 5 4 4 4 5 6 6 3 2 3 5 5 5 6 7 7 6 6 6 6 6 6 6 7 6 6 5 5 5 5 5 4 4 4 4 4 5 6 5 7 7 5 5 7 6 7 9 9 8 6 7 7 8 6 6 6 5 6 7 8 8 8 8
9 8 7 7 7 8 4 5 7 9 9 9 8 9 10 8 8 8 8 7 7 6 5 6 6 6 6 6 5 5 5 4 5 6 6 7 7 7 7 6 6 7 7 6 6 7 7 7 7 7 7 7 6 6 6 6 5 6 6 6 7 7 7 5 5 5 8 7 8 9 7 8 4 5 5 4 6 7 7 7 8 8 9 9 8
11 10 10 8 8 9 8 6 7 9 9 9 9 10 9 9 8 9 8 7 6 6 6 7 8 8 7 6 6 5 6 6 7 7 7 7 7 7 7 7 7 7 8 8 7 8 8 7 7 8 9 9 8 8 9 9 9 8 8 8 7 9 8 7 5 6 7 8 7 7 9 8 9 4 6 6 8 8 7 8 7 8 9 9 8
13 11 9 8 7 8 7 7 9 9 9 10 9 9 8 9 8 7 7 7 6 5 6 6 7 6 6 7 6 6 5 5 6 5 5 6 6 7 8 8 8 8 8 8 7 7 7 7 7 7 8 8 7 7 7 7 8 8 10 9 9 8 10 9 9 7 8 6 7 8 7 7 7 10 10 10 5 5 7 8 9 9 10 9 9
13 12 11 10 10 9 8 9 10 10 9 7 7 7 7 7 7 7 6 6 6 5 5 4 4 5 6 6 6 5 5 4 4 4 4 5 6 6 8 8 8 8 8 8 8 7 8 8 7 7 7 7 6 6 6 7 8 8 8 7 9 10 10 10 10 8 8 8 8 8 7 8 10 10 11 9 6 9 9 8 8 9 9 9 10
11 10 9 12 13 11 8 8 8 9 7 5 6 6 7 8 7 6 6 6 5 5 4 3 3 2 1 1 1 2 4 4 5 5 5 5 4 5 6 8 9 8 8 8 8 7 7 7 7 6 7 6 6 6 6 7 7 7 7 6 7 7 8 9 10 9 9 8 7 7 8 9 9 9 8 11 12 8 8 10 9 9 9 10 11
12 11 10 11 12 12 12 9 7 8 7 5 6 5 7 7 8 7 6 6 5 5 5 4 3 3 3 3 4 3 4 5 5 5 4 4 4 4 6 6 7 8 7 7 7 7 6 6 6 6 6 6 5 5 5 5 6 7 8 8 7 7 8 8 10 9 9 9 9 10 10 10 10 11 12 10 12 12 11 9 10 10 8 9 10
13 13 12 9 12 11 12 10 8 7 5 6 5 5 7 8 8 7 7 6 6 6 5 5 5 4 3 3 3 4 4 4 4 4 4 4 4 4 5 7 7 8 8 7 7 7 7 6 6 6 6 6 5 5 5 7 7 8 8 7 7 7 7 8 9 8 9 9 10 10 10 9 10 10 11 9 10 11 12 13 12 9 10 11 10
11 12 11 11 11 11 12 12 10 7 6 6 7 7 7 7 7 7 8 7 6 6 6 6 5 4 4 4 5 4 3 3 3 3 3 2 4 5 6 6 6 6 7 8 8 8 8 8 7 8 7 6 6 6 7 7 7 7 8 8 8 8 7 7 9 9 8 9 10 10 10 10 10 9 9 10 11 11 13 13 12 14 13 10 10
13 13 11 12 10 12 11 11 10 8 6 7 7 8 8 7 8 9 8 7 7 6 6 6 6 5 5 6 6 5 4 4 3 3 2 3 3 5 6 6 6 6 7 7 8 8 7 8 7 6 6 6 6 7 6 7 7 7 6 8 8 9 8 9 9 9 8 9 9 8 9 10 10 11 11 11 11 12 12 13 14 13 14 14 11
16 15 14 14 13 12 10 12 11 9 8 9 8 8 8 8 9 9 9 8 7 6 6 6 5 6 6 6 5 4 3 2 2 3 3 3 4 5 4 5 6 6 6 6 7 8 6 7 7 7 7 7 6 6 6 7 7 6 7 7 7 8 8 8 7 8 10 8 9 9 9 10 11 10 11 11 11 12 12 13 13 14 14 13 12
15 15 15 14 13 13 11 12 13 11 10 10 9 8 9 9 9 9 9 8 8 7 7 6 6 6 6 7 7 6 5 5 5 5 4 4 4 5 5 6 5 6 6 6 7 7 6 6 7 6 6 6 7 7 6 7 7 6 8 8 8 9 8 9 8 9 9 9 8 9 8 8 9 9 10 11 11 12 12 13 13 13 14 14 13
15 15 14 14 13 13 13 12 12 12 12 10 10 9 8 8 9 10 10 8 8 7 7 7 8 7 8 8 7 7 7 6 6 6 5 5 5 6 5 6 6 6 7 7 7 6 6 6 6 6 7 7 7 7 7 7 8 6 8 9 9 8 9 10 8 10 9 10 9 8 9 9 9 9 10 10 10 11 11 12 14 13 14 15 14
15 14 14 14 14 14 13 12 12 12 12 11 9 9 9 8 8 9 9 8 8 8 7 8 8 9 8 8 7 7 7 6 6 6 6 6 6 6 6 6 6 6 7 6 6 6 6 7 7 8 8 8 8 8 7 6 7 6 7 8 8 8 9 9 8 10 9 11 10 9 9 8 9 9 9 10 10 10 11 12 13 15 14 13 14
15 15 14 14 14 13 13 12 12 12 12 10 10 9 9 8 8 9 9 9 8 8 8 8 9 9 10 10 9 8 7 7 6 6 6 6 6 6 6 6 6 6 6 6 7 7 7 8 8 9 9 8 8 9 9 7 7 6 6 7 8 7 8 10 9 9 10 11 10 10 9 9 9 9 9 9 10 10 10 10 11 12 12 14 13
15 15 14 15 14 13 12 12 11 12 12 11 10 10 10 9 9 9 9 9 8 8 8 9 9 10 10 10 9 9 9 8 7 7 7 7 7 6 6 7 7 6 5 5 6 7 7 8 8 8 9 9 9 9 9 8 7 7 7 8 8 8 8 9 9 9 9 9 9 10 9 9 9 10 9 9 9 9 9 9 9 9 10 12 12
15 14 14 14 14 14 13 12 13 12 12 13 12 10 9 8 8 8 8 9 8 8 9 9 9 9 9 9 9 9 8 8 7 7 7 7 7 7 7 7 7 5 5 5 6 7 7 8 8 9 9 10 10 9 9 9 8 7 8 8 9 9 8 8 8 9 9 9 9 10 10 9 9 10 10 9 9 9 9 10 9 10 9 10 10
14 14 14 14 14 14 13 14 13 12 12 12 11 10 9 9 8 8 9 9 9 8 8 7 7 7 7 8 9 8 8 8 7 8 7 8 8 8 8 7 6 6 6 6 6 7 7 8 8 9 9 10 10 10 9 9 9 9 9 8 9 9 8 8 8 8 8 9 10 11 10 9 10 10 10 10 10 10 9 9 9 10 10 9 11
15 14 14 14 14 13 13 14 14 13 12 11 11 10 11 10 9 8 9 9 9 9 8 8 8 8 8 8 9 9 9 9 8 8 8 8 7 7 7 6 6 6 6 6 7 7 8 9 9 9 10 10 10 10 10 10 10 10 9 9 10 10 10 9 9 9 8 9 10 10 10 10 10 10 10 10 10 10 10 11 10 10 10 10 10
15 15 15 15 15 15 14 14 13 12 11 11 11 11 10 9 9 9 9 9 9 8 8 8 8 8 9 9 10 9 10 9 9 8 8 8 7 7 6 6 6 7 6 7 7 8 8 8 9 10 10 10 10 10 10 9 10 10 9 9 10 11 10 9 9 10 9 9 10 11 11 11 11 11 10 11 11 11 11 11 11 11 11 10 10
16 16 16 16 16 15 14 13 12 12 11 11 10 10 10 9 8 8 8 8 8 8 8 8 8 8 9 9 9 8 8 8 8 8 8 8 7 7 6 6 7 7 7 7 8 7 7 8 8 10 10 11 11 11 10 10 10 10 10 8 9 10 10 10 9 10 11 9 10 11 12 12 12 12 12 12 11 12 12 12 12 12 12 12 11
17 17 15 15 15 15 14 14 14 13 12 11 10 9 10 9 8 8 8 8 8 8 8 8 8 8 8 8 8 8 8 8 8 7 8 7 7 7 6 7 7 7 7 7 7 8 8 9 9 9 11 11 12 11 10 11 10 11 11 10 10 10 10 10 11 11 11 10 11 11 12 12 11 13 12 12 12 12 12 13 13 13 13 13 13
16 15 14 14 14 14 14 14 13 12 12 11 10 11 10 9 9 9 9 9 9 9 8 9 8 9 9 8 8 8 8 7 8 7 8 7 6 6 6 7 7 7 7 7 8 8 8 9 9 10 11 12 12 12 12 11 11 11 11 11 11 11 11 11 11 11 11 11 12 12 12 12 13 13 13 12 12 13 13 12 14 13 13 13 12
17 16 16 16 15 15 14 13 13 12 11 10 11 11 10 9 9 10 9 9 9 9 9 9 9 9 9 8 8 8 8 8 8 7 7 7 7 6 6 7 7 8 8 7 7 8 8 9 9 10 11 12 12 13 13 12 11 11 11 10 11 10 10 10 10 10 11 11 12 12 13 13 14 13 13 13 13 16 14 13 13 14 13 13 13
19 18 17 18 16 14 14 13 12 12 11 11 11 11 10 10 10 9 10 10 9 9 9 9 9 9 9 9 8 8 8 8 7 7 7 7 7 7 7 7 7 8 7 7 8 7 7 8 9 10 11 12 12 12 13 13 12 12 10 10 10 10 10 10 10 10 11 11 11 13 13 14 14 15 13 14 14 16 14 13 15 14 14 15 16
20 19 18 17 16 16 15 13 12 12 11 11 11 12 11 11 12 10 10 9 9 9 9 9 8 9 8 8 8 7 7 7 7 7 6 7 7 7 7 7 7 7 7 7 7 8 7 8 9 9 10 11 12 13 13 13 13 13 12 10 10 10 10 8 10 10 10 11 12 13 14 14 14 14 14 14 15 16 14 17 16 15 15 15 16
17 17 18 19 17 15 15 14 13 12 12 12 11 12 12 12 11 11 10 9 8 9 9 9 9 8 8 8 7 7 7 7 7 7 7 7 7 7 7 7 7 7 8 8 8 8 7 7 8 9 10 10 12 12 13 13 13 13 12 10 9 10 10 10 10 10 11 12 13 14 13 13 14 13 14 15 16 16 16 17 16 16 16 16 16
18 18 17 17 17 16 16 15 13 14 14 14 13 13 12 11 11 10 10 10 9 9 9 9 8 8 8 7 7 6 7 7 7 7 7 7 7 7 7 7 7 7 6 7 8 8 8 8 8 9 10 10 11 11 10 11 12 14 12 10 10 10 10 10 10 11 11 12 13 13 12 13 14 16 15 13 14 15 15 17 17 17 18 17 15
19 18 17 16 16 17 16 15 15 15 15 14 13 13 12 12 11 10 10 10 9 9 9 9 9 8 8 8 8 7 7 7 7 8 8 7 7 7 7 7 8 7 7 7 8 8 8 8 8 9 10 10 11 9 12 16 14 13 12 9 8 10 10 10 10 11 12 13 14 13 13 18 16 16 16 14 14 17 19 17 18 18 18 17 15
19 19 18 17 17 18 17 16 15 15 15 14 13 12 12 11 11 10 10 10 9 9 9 9 9 9 8 8 7 7 7 8 8 8 7 8 8 7 7 7 8 7 7 7 8 8 8 7 8 9 10 10 10 9 14 14 16 18 13 10 9 10 10 10 11 13 13 13 14 14 14 15 16 18 18 17 18 20 19 20 21 20 19 18 17
20 19 18 18 19 18 17 16 15 15 15 14 13 12 12 11 10 10 10 10 10 10 10 10 10 9 9 8 8 8 8 8 8 8 8 8 7 7 7 7 7 8 7 7 8 8 8 7 7 8 9 10 9 12 14 16 17 20 16 12 8 9 10 10 12 13 12 13 14 14 14 13 14 18 18 19 22 22 21 21 21 21 20 19 15
21 20 20 20 19 17 17 16 15 14 14 14 13 12 11 11 10 10 10 10 10 10 10 10 10 9 9 8 8 8 9 8 8 8 7 7 8 8 8 7 8 7 7 8 9 8 8 8 7 8 9 10 11 15 15 17 18 20 19 16 8 10 10 11 13 13 13 13 13 14 14 13 14 22 18 19 21 22 23 23 21 20 19 17 17
20 20 20 20 17 15 15 16 15 15 14 14 13 12 11 11 11 11 11 11 11 11 10 11 10 10 9 9 9 9 9 9 8 8 8 8 8 8 7 6 6 7 7 8 9 9 8 8 8 8 8 10 12 13 15 17 18 20 19 17 9 10 11 11 12 12 12 13 13 14 14 15 16 17 17 20 21 21 21 20 19 18 17 19 18
20 20 19 19 18 18 17 16 15 15 14 14 13 12 12 11 11 12 11 12 12 12 11 11 10 10 9 9 9 9 9 9 8 8 8 8 8 7 7 7 6 7 7 7 7 8 8 8 8 8 8 10 10 14 15 17 18 19 21 16 10 9 11 11 12 13 12 13 14 14 15 16 17 17 16 20 22 21 20 19 19 19 19 19 19
21 22 21 20 19 20 18 17 15 15 14 13 13 13 13 12 12 12 12 12 12 12 12 11 10 10 9 9 9 9 8 8 8 8 8 8 7 7 7 7 6 6 7 7 7 7 8 9 8 8 8 9 10 13 15 16 18 19 22 9 11 10 11 12 12 13 12 12 13 14 16 17 17 18 19 23 20 20 20 19 19 19 19 19 18
21 21 21 19 19 19 18 17 15 15 14 14 14 13 13 13 13 13 13 13 12 12 11 11 10 10 10 9 9 9 8 8 8 8 8 8 7 7 6 6 7 7 7 7 7 7 7 8 9 9 8 8 9 12 15 16 17 20 16 10 10 10 10 12 12 13 12 12 13 14 16 16 16 16 20 22 22 23 19 19 19 20 19 17 17
21 20 19 19 18 17 17 16 17 16 15 14 14 14 14 14 14 14 13 13 12 12 11 11 10 10 9 9 9 8 8 8 8 8 7 7 6 6 6 5 7 7 7 6 6 6 7 7 8 9 8 7 8 11 14 14 16 18 17 11 11 10 11 12 12 12 11 12 14 12 15 16 16 17 21 21 21 20 19 19 19 21 21 20 19
21 22 21 19 18 18 18 17 17 17 16 16 15 16 15 15 14 14 13 13 12 12 11 11 10 10 9 9 8 8 8 8 8 7 6 7 6 6 5 5 5 6 6 6 6 6 6 6 6 7 8 8 8 10 13 13 15 16 15 11 11 11 12 12 11 12 12 12 13 12 12 14 16 18 20 20 21 19 18 18 20 19 19 21 20
21 20 21 21 20 19 19 18 18 17 17 17 17 15 16 15 15 14 13 13 12 12 11 11 10 10 9 8 7 8 7 7 8 7 6 6 5 5 5 5 5 6 6 5 5 6 6 6 6 6 6 8 8 9 11 11 13 13 15 13 10 11 12 11 11 11 11 12 12 13 13 15 18 20 20 20 19 19 16 17 18 18 18 18 20
20 19 19 18 18 18 19 19 17 18 17 17 16 16 16 15 14 13 13 13 12 12 12 11 10 10 9 9 7 7 7 7 7 6 6 6 5 5 5 5 6 5 5 5 5 4 5 5 5 6 6 6 7 9 9 10 12 12 12 12 10 12 11 11 11 12 11 11 12 13 13 15 19 20 20 20 18 18 18 17 18 16 16 18 18
22 23 22 20 19 19 19 18 17 18 17 16 16 16 16 15 14 14 14 12 12 12 11 11 10 10 9 8 8 7 6 6 6 6 6 6 5 4 4 4 5 5 5 5 4 4 4 4 4 4 6 6 5 7 10 9 10 12 11 10 9 10 11 11 11 11 12 11 12 13 12 16 20 20 20 19 17 16 18 16 16 20 22 22 17
22 22 21 20 19 20 20 19 18 18 17 16 17 17 16 15 14 15 13 12 12 11 11 11 10 10 9 8 8 8 6 5 5 5 5 5 4 4 4 3 3 3 4 4 5 4 4 5 5 5 5 6 5 5 6 9 10 10 10 11 10 10 13 11 10 12 12 11 12 13 13 18 20 20 20 19 16 14 16 16 19 21 21 22 18
21 22 22 22 20 19 18 18 17 16 16 16 17 17 16 15 16 14 13 12 12 11 11 10 10 9 9 8 8 7 6 6 6 5 4 4 4 3 3 3 3 3 3 4 4 4 4 5 6 5 5 6 6 7 7 7 8 8 10 10 10 10 11 9 11 10 11 11 12 13 14 18 18 18 19 17 10 13 12 17 17 19 20 18 16
22 22 22 20 20 21 19 19 17 17 15 16 16 17 18 16 15 14 14 13 12 11 10 10 10 9 9 8 7 6 6 5 5 4 4 4 3 1 3 2 3 3 4 4 4 5 5 5 5 6 6 6 6 7 8 7 6 8 10 7 9 9 9 11 9 11 10 11 9 12 14 15 15 13 16 15 15 16 14 15 16 17 18 18 17
20 21 22 21 20 20 20 20 18 18 16 16 16 16 18 16 15 14 13 13 12 11 11 10 10 9 9 8 7 7 6 5 4 3 2 2 2 2 2 2 2 3 3 4 4 4 5 5 5 6 6 6 6 7 8 9 10 11 11 11 9 8 10 13 11 8 14 13 7 10 11 13 15 15 15 15 15 13 14 17 16 17 17 14 14
22 22 22 20 20 19 20 19 18 17 16 16 17 16 16 14 15 14 13 12 12 11 10 9 9 9 8 7 7 6 6 5 4 3 3 2 2 2 1 1 1 2 3 3 4 4 5 5 5 6 5 5 6 7 8 9 10 10 10 11 11 11 12 12 10 10 12 12 12 11 10 10 12 11 14 13 15 15 16 16 18 18 15 13 14
22 23 22 21 21 21 21 20 18 17 15 16 16 16 15 15 15 13 12 12 11 11 10 9 9 8 7 7 6 5 3 5 4 3 3 3 2 1 1 2 3 3 3 3 3 4 4 5 5 5 6 5 6 7 8 9 9 10 10 11 11 11 11 10 10 11 11 12 12 12 12 13 13 14 15 14 14 14 14 16 16 16 16 14 14
22 22 21 20 21 21 21 20 18 16 15 15 16 16 15 16 13 12 12 12 11 11 10 10 9 8 7 6 6 7 5 4 5 4 2 1 2 2 2 3 3 4 5 5 4 3 4 4 4 5 6 6 6 7 7 7 7 8 8 8 10 11 11 10 11 15 12 11 11 11 12 13 14 13 15 15 16 16 15 16 17 17 17 16 14
21 20 21 21 21 21 21 19 17 16 15 15 15 14 13 14 14 13 13 12 11 10 10 9 8 7 7 7 6 6 6 4 4 5 5 4 6 5 6 4 5 6 5 4 4 4 5 5 5 3 4 6 6 6 6 8 9 10 11 11 11 13 13 11 14 19 15 8 10 10 12 13 13 14 15 14 15 16 15 15 16 16 16 16 15
18 19 20 21 20 20 20 19 15 14 13 13 12 13 15 15 14 13 13 12 11 9 8 8 8 7 7 7 6 6 5 5 4 4 5 5 6 6 5 3 5 6 4 4 2 4 3 4 3 4 2 9 3 3 6 7 9 10 12 12 12 12 15 15 16 11 8 8 9 11 11 11 12 14 13 13 13 14 14 14 14 15 16 17 14
Wind_Direction
94 33 30 40 2 79 50 72 99 118 131 132 136 139 131 130 123 112 110 111 111 115 112 116 100 100 91 76 76 74 62 74 72 59 59 54 42 48 51 51 47 43 36 33 23 15 8 14 12 6 331 335 338 345 357 336 335 327 314 294 295 302 293 293 293 289 287 284 276 270 276 262 253 252 257 262 270 266 263 264 269 274 273 268 265
93 88 83 56 51 46 66 37 75 96 110 116 116 115 110 102 101 108 112 102 91 85 89 90 84 85 94 93 107 102 97 77 83 72 60 57 48 45 43 44 46 47 39 34 27 21 15 16 11 349 357 357 353 356 345 329 329 319 310 311 301 307 306 309 304 305 290 304 313 313 296 276 238 237 249 258 266 259 258 265 274 277 275 275 272
98 108 113 92 73 86 56 50 78 90 84 84 93 97 89 87 87 86 82 83 76 67 71 77 81 82 87 100 106 92 69 75 88 84 75 68 60 53 46 40 34 36 34 33 29 24 20 12 6 6 6 7 358 354 346 341 337 332 332 324 321 312 302 308 301 304 310 315 306 293 303 314 290 233 219 247 248 264 272 277 277 271 273 274 272
124 131 127 119 123 122 109 102 95 90 92 94 92 89 91 90 89 92 88 77 73 68 67 76 78 82 87 104 116 117 114 106 95 84 81 77 68 59 53 45 45 42 38 34 31 28 25 22 17 12 16 17 17 17 9 3 358 343 344 336 334 315 319 319 315 313 316 316 308 317 311 304 301 306 319 295 282 277 274 277 279 279 277 277 275
130 125 116 121 125 97 92 102 108 92 94 97 96 95 92 89 83 77 79 76 76 83 96 101 107 103 102 104 107 117 128 124 110 90 86 84 73 61 53 42 42 45 41 38 37 34 29 30 30 32 28 21 19 21 15 11 3 359 357 347 335 325 318 318 312 311 303 301 298 304 300 285 307 317 322 300 292 287 275 271 273 275 276 275 273
128 131 134 124 106 84 90 100 100 97 89 79 69 68 77 76 72 72 72 83 81 73 79 108 119 136 149 155 154 159 141 126 118 109 100 75 73 75 60 46 47 43 42 40 40 36 37 35 36 33 29 26 21 16 12 7 8 5 358 346 337 331 325 313 306 303 303 300 290 281 290 291 304 314 313 300 303 286 289 280 284 283 281 278 275
114 110 110 113 111 101 73 64 69 79 75 69 63 67 74 79 80 78 77 89 74 69 64 58 65 53 44 358 13 129 107 84 77 69 75 78 74 68 68 51 43 47 43 41 37 36 36 31 30 30 31 25 14 11 10 5 352 351 343 343 329 321 320 308 308 311 312 294 296 290 286 283 285 294 296 305 298 302 296 294 286 278 276 280 279
120 118 120 124 120 111 106 91 73 85 91 72 65 69 76 79 74 70 76 82 79 71 60 48 78 72 60 48 40 54 75 97 88 82 76 73 66 67 87 66 47 46 49 43 39 36 31 27 26 26 23 18 2 13 4 358 345 332 333 327 325 320 317 307 306 305 307 306 317 310 302 297 294 285 282 289 294 298 300 291 288 293 284 273 275
133 137 133 131 125 114 117 114 106 98 77 82 82 76 72 71 74 81 84 78 72 66 64 65 61 70 82 94 103 82 86 92 84 69 71 66 71 66 75 86 66 50 44 42 39 36 30 27 26 26 19 12 360 358 355 346 341 335 338 341 341 336 326 317 317 324 324 313 314 305 305 301 297 288 289 288 295 301 298 300 302 302 293 283 276
130 126 131 140 127 118 119 121 114 105 100 100 90 84 81 88 96 91 84 82 80 76 76 81 83 88 93 92 85 93 103 89 68 68 61 56 68 69 70 62 50 46 45 37 33 34 29 27 31 27 20 12 5 360 352 349 347 341 338 338 335 338 330 331 333 324 318 319 320 315 306 304 298 299 296 300 296 293 298 303 302 301 298 299 295
140 137 135 138 126 122 126 114 111 111 109 99 92 98 105 103 95 92 88 86 81 78 76 77 76 73 81 84 85 82 75 78 83 66 59 56 72 77 80 67 51 49 48 39 32 26 29 31 23 21 21 12 3 359 358 352 350 348 350 347 349 350 340 341 335 325 328 325 318 312 312 312 314 309 306 306 305 302 302 299 301 302 306 301 293
146 142 143 139 131 127 128 120 119 119 114 108 114 112 108 106 103 97 90 84 82 79 75 76 78 80 83 87 86 77 67 65 54 54 56 70 76 94 96 84 62 55 41 41 32 23 26 26 20 16 21 10 5 0 358 0 359 352 13 2 356 354 358 350 338 339 339 325 327 330 324 321 320 321 322 319 315 312 307 302 300 306 304 300 302
145 146 148 149 145 142 137 132 131 134 129 124 121 115 109 106 102 97 89 84 78 77 75 71 72 76 81 84 83 74 71 73 78 73 61 72 76 70 66 69 66 57 45 40 35 27 27 26 20 18 14 12 6 5 7 10 4 10 17 11 5 5 2 352 347 346 342 342 334 325 319 323 321 321 319 322 321 320 316 309 307 313 306 305 301
153 152 153 153 149 146 145 145 141 137 132 127 121 117 113 108 101 98 95 88 85 81 78 77 77 79 78 81 85 82 77 72 70 75 72 70 69 68 70 73 69 61 54 47 38 30 37 32 26 24 20 15 14 15 14 19 16 18 23 16 10 8 357 353 350 349 346 348 342 337 339 328 326 331 328 323 326 323 317 316 314 310 309 304 302
158 157 157 153 152 150 152 151 145 138 133 132 127 119 118 112 102 101 97 89 84 83 82 82 80 78 80 79 80 84 81 79 75 70 67 76 79 76 73 72 68 60 56 51 38 41 38 39 34 30 25 20 19 18 12 23 21 24 24 19 17 9 359 355 350 348 349 347 343 343 336 332 333 328 329 330 328 322 317 318 315 311 312 311 308
164 159 156 155 154 155 155 152 146 140 137 132 127 126 120 112 105 97 94 90 87 86 85 84 84 82 81 81 79 81 84 81 78 76 78 73 74 76 74 72 71 69 60 52 47 42 39 38 39 34 28 26 24 22 19 18 17 19 21 22 16 12 7 5 1 352 352 350 346 342 335 334 331 338 338 335 329 327 329 326 329 330 328 323 320
164 160 155 154 154 152 149 145 142 139 135 131 128 122 119 114 105 94 88 88 83 83 85 83 83 84 80 79 80 81 80 80 81 83 81 79 79 78 79 79 77 68 65 57 53 50 43 38 38 35 33 30 28 26 24 20 15 20 17 17 13 6 6 11 4 0 355 352 352 345 341 336 340 338 333 333 329 328 328 327 329 324 325 319 321
157 154 151 152 152 150 147 145 144 142 137 132 128 125 118 109 103 91 86 84 83 84 86 86 83 81 81 80 78 77 79 81 82 82 81 84 85 84 83 82 74 69 70 66 61 56 51 43 41 40 37 35 32 28 26 24 21 23 15 19 12 3 6 9 6 358 357 352 351 349 348 344 348 339 336 331 330 331 330 332 327 325 326 319 314
160 155 153 154 153 152 151 147 142 137 136 131 125 124 116 108 101 92 86 83 87 86 86 86 85 82 81 81 80 79 79 82 83 83 87 91 88 84 81 78 77 70 67 65 62 56 52 48 44 43 38 38 34 31 26 28 25 24 19 17 12 4 2 2 3 359 354 351 351 348 349 348 349 342 336 337 335 337 337 329 326 323 322 320 318
158 154 154 152 150 149 148 144 142 141 137 128 125 121 118 113 104 91 87 87 89 92 90 87 84 84 81 81 83 83 82 84 85 86 85 82 82 85 81 75 69 69 65 60 58 56 51 51 47 45 43 39 37 32 29 27 26 26 20 16 11 5 4 5 360 1 355 350 349 347 351 351 349 343 339 335 336 340 336 330 328 325 320 320 319
156 156 152 151 150 147 145 143 138 135 132 133 132 126 116 109 103 93 91 93 93 94 95 93 91 87 88 87 87 86 86 84 81 80 81 77 76 72 70 70 68 62 61 60 56 51 51 48 49 45 41 39 38 35 30 27 26 23 22 14 10 7 6 5 358 359 360 355 352 348 351 355 352 346 341 336 339 340 336 332 329 328 324 323 325
158 154 151 149 148 143 141 141 140 140 141 139 132 124 116 109 103 97 96 98 102 101 99 98 95 94 89 90 85 82 79 76 77 77 77 77 74 72 72 72 69 59 55 57 55 53 51 51 47 44 41 38 35 35 29 28 23 21 19 15 7 4 3 1 358 359 0 359 354 353 353 354 354 347 342 340 339 338 337 330 330 330 325 323 325
160 154 151 149 148 146 146 147 146 142 139 139 133 122 112 105 102 102 101 99 99 100 101 104 102 98 94 88 85 82 80 78 77 75 74 76 74 71 67 68 65 65 57 53 52 52 49 48 48 45 40 36 32 29 26 22 20 16 13 12 7 4 1 358 358 359 359 357 357 356 356 354 351 346 346 341 340 340 336 331 329 328 323 321 320
158 154 148 149 148 149 149 149 145 144 144 140 130 120 113 109 108 109 108 111 111 107 103 98 99 98 93 87 83 81 78 78 79 74 73 71 71 70 68 64 61 58 59 54 50 48 49 46 45 44 40 36 30 25 22 17 14 8 7 4 2 2 1 359 358 358 357 356 358 356 357 355 352 347 345 341 342 341 336 332 329 327 324 321 317
154 151 148 146 149 151 152 151 150 147 144 138 127 119 114 119 119 116 116 113 107 103 104 104 104 101 94 90 86 83 82 78 75 73 70 71 70 69 62 63 63 60 53 53 52 50 50 50 46 42 40 36 30 24 17 12 9 4 0 360 359 359 357 359 1 357 359 358 355 356 355 355 356 348 345 344 342 340 337 332 330 328 324 321 316
158 150 145 149 151 153 153 152 150 147 144 134 123 120 123 126 122 121 122 116 109 106 108 109 107 102 98 92 88 84 80 78 78 77 73 69 68 67 68 63 59 62 58 54 56 52 48 52 49 46 41 37 33 24 17 9 4 359 356 356 358 357 357 1 0 2 2 1 356 357 354 358 355 351 348 345 343 339 336 331 328 326 324 321 317
159 156 157 155 155 156 153 150 151 148 139 129 121 119 120 124 128 130 124 118 114 112 111 110 106 101 97 90 85 83 83 81 77 74 74 73 69 67 67 67 62 61 60 59 55 59 54 52 52 49 43 38 33 26 17 8 2 357 352 353 359 359 360 4 3 4 4 1 360 359 356 358 353 352 348 343 340 338 336 331 326 323 321 319 317
157 159 158 158 157 155 155 154 149 143 132 124 122 123 127 130 132 131 125 120 119 117 114 111 109 103 98 94 91 89 84 80 79 77 73 70 71 70 69 69 67 62 60 57 54 58 61 57 55 53 45 38 32 26 19 7 359 355 348 350 357 2 3 6 6 4 5 3 1 360 357 356 352 348 345 340 338 336 332 328 324 322 320 317 314
157 158 159 157 156 157 157 153 146 138 130 126 127 127 128 132 134 131 129 128 125 120 116 112 109 103 98 97 95 89 86 84 81 78 76 74 72 70 71 71 69 67 58 55 55 57 59 62 60 55 48 40 33 24 15 358 352 351 349 351 359 4 6 9 6 4 5 4 1 1 356 354 349 347 341 333 332 330 328 325 322 319 317 315 311
160 161 161 160 158 159 160 152 146 140 135 133 133 134 136 138 136 134 133 130 126 122 117 115 110 107 106 102 98 94 88 84 82 79 76 75 74 73 71 69 66 63 60 55 58 58 58 59 59 55 49 39 30 25 355 346 344 347 344 350 358 8 10 8 5 4 4 4 1 359 353 353 347 349 342 337 333 328 324 318 315 316 314 311 306
164 164 164 162 162 164 159 151 147 142 139 138 138 137 138 136 136 137 134 134 130 124 120 117 113 110 108 103 96 93 91 86 81 80 79 76 75 74 72 69 66 62 61 60 57 62 59 56 57 56 47 38 32 12 346 348 342 343 344 351 7 8 8 8 9 6 4 2 360 356 353 350 349 348 343 340 338 332 324 317 311 304 298 298 304
167 166 164 165 165 164 157 151 147 144 141 141 140 140 141 138 137 135 136 136 130 126 123 120 117 117 113 105 100 96 90 86 82 78 77 78 79 77 74 71 71 68 64 62 61 59 59 57 56 55 47 39 35 10 349 354 347 346 341 333 2 9 11 6 12 6 3 2 358 355 352 349 349 346 342 344 340 334 327 320 315 306 298 286 268
168 166 168 168 168 162 155 150 148 147 145 143 142 143 141 137 136 135 135 134 133 130 127 124 123 118 111 106 103 98 92 88 82 80 79 80 78 79 78 76 72 70 69 63 59 58 55 51 52 52 49 41 31 11 355 359 350 346 341 331 16 13 10 11 9 6 3 1 0 355 352 349 348 346 346 348 341 336 330 323 316 314 311 314 313
168 170 170 170 165 160 155 152 148 146 145 142 143 140 135 134 135 137 139 138 134 131 129 126 125 120 115 110 105 99 94 90 86 82 81 79 79 76 78 78 79 75 68 65 61 57 53 50 45 44 51 45 30 10 360 0 353 344 341 327 23 10 11 10 8 7 2 2 1 356 352 349 349 347 351 350 342 338 333 328 329 326 323 320 316
171 171 170 167 161 160 157 150 149 146 143 143 141 138 137 139 142 141 141 138 135 131 129 128 125 122 118 114 108 102 98 95 90 86 82 79 76 76 74 74 73 67 65 62 57 56 53 48 43 41 46 48 38 15 6 0 358 346 340 317 20 9 11 6 6 4 4 4 3 359 354 351 350 348 357 348 341 339 333 331 329 328 327 324 321
173 172 171 164 162 163 157 150 145 143 146 145 142 142 143 143 144 142 140 136 133 130 129 129 127 125 121 116 111 107 104 102 99 93 87 81 77 75 76 74 73 72 69 67 62 57 54 49 44 38 40 48 45 27 10 5 357 354 331 352 10 12 7 7 5 2 4 6 5 360 356 356 352 351 355 341 334 331 336 337 333 332 330 327 324
167 164 162 161 160 157 150 145 145 148 147 147 145 147 145 144 144 141 139 135 133 131 130 131 129 126 124 121 115 110 104 103 100 97 90 84 81 77 73 73 73 70 68 66 66 61 55 51 47 38 32 44 43 29 14 8 0 354 342 4 10 9 7 7 7 5 6 3 6 3 0 360 355 355 346 335 333 335 343 342 339 335 332 328 328
161 159 157 158 155 146 143 147 148 149 148 145 148 147 147 146 143 142 139 138 136 134 135 133 130 128 126 122 119 113 110 105 101 96 92 89 85 81 76 65 67 68 67 64 68 69 65 58 51 45 24 32 43 41 20 10 4 357 344 350 16 5 5 8 8 7 4 4 4 28 21 1 355 350 338 332 334 339 348 346 344 339 334 334 332
159 157 152 152 150 147 147 147 148 148 149 149 149 149 149 146 145 144 142 141 139 136 137 134 132 131 126 123 118 113 109 105 101 97 94 92 84 79 78 76 76 75 70 70 62 65 65 60 56 56 38 29 35 46 27 11 7 0 352 352 15 8 6 6 5 4 6 1 3 11 35 6 349 338 332 332 334 341 348 349 349 343 337 335 334
154 152 151 150 147 147 150 151 152 150 150 152 152 153 150 148 147 146 146 143 141 140 135 133 132 129 125 121 120 117 112 107 104 101 97 91 90 83 74 71 67 66 68 67 67 65 61 58 51 49 51 39 29 34 32 10 9 1 356 340 8 11 4 2 4 4 359 3 3 360 9 6 342 335 331 328 329 338 344 349 352 347 338 330 326
145 145 145 146 151 154 155 154 151 150 153 154 156 153 152 151 149 150 148 144 142 139 137 136 133 132 130 127 126 124 119 112 107 105 101 94 86 83 79 78 74 65 66 68 69 69 67 66 56 47 45 50 40 20 38 24 5 358 355 349 2 10 359 345 359 1 1 3 1 0 0 355 338 330 326 324 323 332 337 352 355 346 333 321 318
145 148 153 154 156 155 153 152 151 154 155 158 157 155 154 152 154 151 147 144 144 142 141 140 140 136 131 131 127 125 124 118 115 113 108 96 87 82 79 75 69 73 69 64 57 57 59 57 62 56 47 34 88 81 14 35 9 351 343 343 351 358 348 325 350 4 0 2 358 357 358 343 329 322 318 317 317 328 337 356 346 338 333 333 332
146 150 154 155 156 155 155 154 155 157 158 160 158 156 155 155 155 150 149 149 146 147 146 144 139 135 136 134 134 137 135 131 124 117 108 105 103 93 90 82 86 89 74 72 66 54 53 49 45 47 39 42 22 89 80 19 8 337 331 323 327 327 328 327 348 2 359 358 359 355 351 332 320 316 313 313 309 329 351 352 340 344 340 336 337
148 153 156 158 154 154 152 153 155 157 160 161 161 158 157 159 153 152 151 149 151 151 149 144 142 142 144 142 144 143 137 136 134 126 113 107 100 97 85 71 60 51 64 59 56 49 45 42 36 33 39 28 29 16 106 69 351 330 309 302 309 314 311 336 321 358 353 352 353 348 330 311 310 311 314 313 321 359 346 343 343 345 343 346 350
154 156 154 156 156 153 151 153 155 159 162 163 163 159 158 159 153 154 154 156 156 153 151 149 151 149 150 150 150 145 144 135 138 141 134 126 122 144 94 91 79 61 50 49 46 47 36 36 28 27 25 25 20 26 7 26 352 342 324 309 307 300 304 306 317 355 344 342 318 301 298 307 303 325 322 339 358 0 353 350 351 351 358 3 356
153 154 158 159 154 153 153 153 157 163 164 165 163 161 162 159 154 157 159 158 157 156 156 158 155 152 157 153 154 148 147 138 148 141 132 110 104 101 77 70 70 60 55 46 41 34 33 26 29 19 17 18 23 20 10 7 0 355 349 344 329 332 339 321 299 341 320 301 309 314 326 330 340 0 347 358 355 359 356 5 360 360 8 358 359
157 156 159 157 152 151 152 154 159 165 165 165 164 164 164 158 158 162 163 161 161 161 162 163 156 156 162 156 154 162 152 153 166 168 149 149 140 126 125 104 62 59 56 48 41 31 25 25 21 18 9 14 21 21 14 7 4 358 354 349 352 352 345 333 344 353 339 344 350 342 348 342 333 351 351 338 350 355 359 3 5 4 6 358 351
157 157 161 156 155 154 155 158 162 165 165 164 166 167 166 160 162 164 165 165 167 169 170 169 163 162 164 165 165 103 180 159 175 172 165 151 139 119 93 52 35 25 16 34 36 33 23 20 6 17 8 8 17 23 21 6 0 356 349 351 354 352 353 347 351 345 330 323 346 352 354 359 355 357 1 1 357 358 355 359 5 0 7 3 350
155 159 161 160 159 157 158 160 161 163 162 164 167 169 164 158 162 165 170 170 170 172 177 169 170 168 165 171 167 164 199 173 162 184 168 153 139 157 117 101 59 16 21 4 9 34 33 12 357 16 10 5 8 20 16 359 327 321 314 334 349 352 350 345 338 319 313 329 357 351 357 359 358 359 1 0 357 356 1 357 359 2 4 2 353
155 158 162 159 159 157 157 157 159 161 163 164 168 163 156 161 167 171 173 173 172 176 183 174 177 174 167 176 182 172 183 185 173 177 160 125 55 10 347 343 105 95 64 25 340 3 10 347 343 26 36 0 5 2 357 324 320 318 316 311 312 312 317 317 315 316 304 350 354 3 357 360 357 360 1 357 355 359 356 355 356 356 0 4 3
146 148 151 154 155 156 156 157 155 155 154 154 158 160 164 170 174 175 176 177 177 178 183 179 180 185 175 179 182 179 177 186 184 179 179 162 161 161 198 235 342 124 150 170 232 281 315 307 307 325 74 160 235 297 278 295 312 312 311 307 308 314 312 315 309 319 318 5 356 6 0 358 0 0 1 359 352 357 357 355 355 355 3 1 360